Weather History for KDKK - September, 2012

Change the Weather History Date:

Tuesday, September 18, 2012

  Actual Average (KBUF) Record (KBUF)
Temperature  
Mean Temperature 64 °F 62 °F  
Max Temperature 71 °F 70 °F 89 °F (1946)
Min Temperature 57 °F 53 °F 37 °F (1943)
Degree Days  
Heating Degree Days 2 5  
Month to date heating degree days 53  
Since 1 July heating degree days 80  
Cooling Degree Days 0 1  
Month to date cooling degree days 43  
Year to date cooling degree days 530  
Growing Degree Days 14 (Base 50)    
Moisture  
Dew Point 57 °F    
Average Humidity 79    
Maximum Humidity 94    
Minimum Humidity 59    
Precipitation  
Precipitation 0.29 in 0.13 in 2.11 in (1945)
Month to date precipitation 2.19  
Year to date precipitation 27.35  
Snow  
Snow 0.00 in 0.00 in 0.00 in ()
Month to date snowfall 0.0  
Since 1 July snowfall 0.0  
Since 1 September snowfall 0.0  
Snow Depth -    
Sea Level Pressure  
Sea Level Pressure 29.62 in    
Wind  
Wind Speed 12 mph (WSW)    
Max Wind Speed 17 mph    
Max Gust Speed 31 mph    
Visibility 9 miles    
Events Rain    
T = Trace of Precipitation, MM = Missing Value Source: NWS Daily Summary

Daily Weather History Graph

Daily Weather History Graph

Search for Another Location

Airport or City:

Trip Planner

Search our weather history database for the weather conditions in past years. The results will help you decide how hot, cold, wet, or windy it might be!

Date:

Astronomy

Sep. 18, 2012 Rise Set
Actual Time 7:00 AM EDT 7:20 PM EDT
Civil Twilight 6:32 AM EDT 7:48 PM EDT
Nautical Twilight 5:59 AM EDT 8:21 PM EDT
Astronomical Twilight 5:25 AM EDT 8:55 PM EDT
Moon 10:03 AM EDT (9/18) 8:36 PM EDT (9/18)
Length of Visible Light 13h 16m
Length of Day
12h 19m
Waxing Crescent, 9% of the Moon is Illuminated
Sep 18
Waxing Crescent
Sep 22
First Quarter
Sep 29
Full
Oct 8
Last Quarter
Oct 15
New

Hourly Weather History & Observations

Time (EDT) Temp. Dew Point Humidity Pressure Visibility Wind Dir Wind Speed Gust Speed Precip Events Conditions
12:53 AM 68.0 °F 55.0 °F 63% 29.77 in 10.0 mi South 12.7 mph 19.6 mph N/A   Partly Cloudy
1:53 AM 66.9 °F 55.9 °F 68% 29.75 in 10.0 mi South 15.0 mph 27.6 mph N/A   Clear
2:53 AM 66.9 °F 57.0 °F 70% 29.72 in 10.0 mi South 13.8 mph 24.2 mph N/A   Clear
3:25 AM 66.2 °F 57.2 °F 73% 29.72 in 10.0 mi South 15.0 mph 21.9 mph N/A   Mostly Cloudy
4:53 AM 66.0 °F 60.1 °F 81% 29.69 in 10.0 mi South 11.5 mph - 0.00 in   Overcast
5:53 AM 66.0 °F 60.1 °F 81% 29.65 in 10.0 mi South 15.0 mph - 0.00 in Rain Light Rain
6:53 AM 66.0 °F 60.1 °F 81% 29.62 in 10.0 mi SSE 11.5 mph - 0.00 in Rain Light Rain
7:53 AM 64.0 °F 60.1 °F 87% 29.60 in 8.0 mi South 8.1 mph - 0.01 in Rain Light Rain
8:53 AM 63.0 °F 61.0 °F 93% 29.57 in 6.0 mi SSE 4.6 mph - 0.07 in Rain Light Rain
9:53 AM 64.9 °F 61.0 °F 87% 29.54 in 10.0 mi Calm Calm - 0.05 in Rain Light Rain
10:53 AM 66.0 °F 63.0 °F 90% 29.53 in 10.0 mi SSW 5.8 mph - 0.01 in   Overcast
11:21 AM 66.2 °F 62.6 °F 88% 29.53 in 10.0 mi SSW 4.6 mph - N/A   Mostly Cloudy
11:53 AM 68.0 °F 63.0 °F 84% 29.52 in 10.0 mi SW 8.1 mph - N/A   Partly Cloudy
12:38 PM 69.8 °F 62.6 °F 78% 29.52 in 10.0 mi WSW 13.8 mph - N/A   Overcast
12:53 PM 70.0 °F 61.0 °F 73% 29.51 in 10.0 mi SW 11.5 mph - N/A   Overcast
1:53 PM 66.9 °F 62.1 °F 84% 29.50 in 2.5 mi SW 9.2 mph - 0.03 in Rain Rain
1:59 PM 66.2 °F 62.6 °F 88% 29.51 in 1.8 mi WSW 16.1 mph 28.8 mph 0.02 in Rain Rain
2:09 PM 64.4 °F 62.6 °F 94% 29.51 in 2.0 mi WSW 11.5 mph 24.2 mph 0.06 in Rain Light Rain
2:12 PM 64.4 °F 62.6 °F 94% 29.52 in 4.0 mi WSW 9.2 mph - 0.06 in Rain Light Rain
2:17 PM 64.4 °F 62.6 °F 94% 29.52 in 1.8 mi West 10.4 mph - 0.10 in Rain Heavy Rain
2:24 PM 64.4 °F 62.6 °F 94% 29.52 in 2.0 mi West 9.2 mph - 0.11 in Rain Light Rain
2:30 PM 64.4 °F 62.6 °F 94% 29.52 in 9.0 mi West 6.9 mph - 0.11 in Rain Light Rain
2:38 PM 64.4 °F 60.8 °F 88% 29.52 in 10.0 mi West 10.4 mph 19.6 mph 0.11 in   Overcast
2:53 PM 66.9 °F 62.1 °F 84% 29.52 in 10.0 mi WSW 9.2 mph - 0.11 in   Overcast
3:09 PM 64.4 °F 62.6 °F 94% 29.53 in 10.0 mi WSW 11.5 mph 17.3 mph N/A   Overcast
3:53 PM 62.1 °F 57.9 °F 86% 29.56 in 10.0 mi NW 16.1 mph 25.3 mph 0.00 in Rain Light Rain
4:22 PM 60.8 °F 55.4 °F 82% 29.59 in 10.0 mi WNW 15.0 mph 27.6 mph 0.00 in   Overcast
4:53 PM 62.1 °F 55.9 °F 80% 29.60 in 10.0 mi WNW 16.1 mph 27.6 mph 0.00 in   Overcast
5:53 PM 60.1 °F 50.0 °F 69% 29.67 in 10.0 mi WNW 17.3 mph 27.6 mph 0.01 in   Overcast
6:01 PM 59.0 °F 48.2 °F 67% 29.67 in 10.0 mi WNW 16.1 mph 31.1 mph N/A   Overcast
6:53 PM 60.1 °F 48.0 °F 64% 29.70 in 10.0 mi WNW 15.0 mph 20.7 mph N/A   Overcast
7:07 PM 60.8 °F 46.4 °F 59% 29.71 in 10.0 mi WNW 11.5 mph 26.5 mph N/A   Overcast
7:53 PM 59.0 °F 46.9 °F 64% 29.74 in 10.0 mi WNW 12.7 mph 23.0 mph N/A   Overcast
8:53 PM 57.9 °F 44.1 °F 60% 29.78 in 10.0 mi WNW 15.0 mph 23.0 mph N/A   Scattered Clouds
9:53 PM 57.9 °F 44.1 °F 60% 29.81 in 10.0 mi WNW 13.8 mph 21.9 mph N/A   Mostly Cloudy
10:53 PM 57.0 °F 43.0 °F 59% 29.83 in 10.0 mi WNW 11.5 mph 18.4 mph N/A   Mostly Cloudy
11:53 PM 57.0 °F 43.0 °F 59% 29.85 in 10.0 mi WNW 12.7 mph - N/A   Overcast